Simultaneous Nadir Overpasses (SNOs) Predictions

Prediction of SNOs between GOES-14 and NOAA-20 Satellite Orbit:

Table of predicted SNOs for the next 14.0 days since TLE Epoch: 2/15/2019
Index Date Time (GOES-14) GOES-14 Lat,Lon NOAA-20 Lat,Lon Distance(km) Time Diff (sec)
1 02/16/2019 08:14:21 0.03,-104.39 -0.51,-102.03 269.13 80
2 02/17/2019 20:36:17 -0.04,-104.17 -0.72,-107.32 357.98 80
3 02/18/2019 20:14:52 -0.04,-104.17 0.27,-102.78 158.36 80
4 02/20/2019 08:36:42 0.04,-104.39 0.88,-108.06 418.77 80
5 02/21/2019 08:20:38 0.04,-104.39 -0.17,-103.54 98.20 80
6 02/23/2019 20:23:50 -0.04,-104.20 -0.07,-104.29 11.10 80
7 02/26/2019 08:24:16 0.04,-104.41 0.16,-105.05 71.56 80
8 02/27/2019 08:08:11 0.05,-104.42 -0.83,-100.51 445.66 80
9 02/28/2019 20:30:08 -0.05,-104.23 -0.40,-105.80 179.54 80




NCC Satellite Simultaneous Nadir Overpasses (SNOs) Prediction Service
